Tracking 20040 objects as of 19-Nov-2019
Live streaming from Space Station
objects crossing your sky now

COSMOS 2340

Track COSMOS 2340 now!
COSMOS 2340 is classified as:


NORAD ID: 24761
Int'l Code: 1997-015A
Perigee: 3,236.4 km
Apogee: 37,189.5 km
Inclination: 67.0 °
Period: 718.9 minutes
Semi major axis: 26583 km
RCS: 6.3095 m2 (large)
Launch date: April 9, 1997
Source: Commonwealth of Independent States (former USSR) (CIS)
Launch site: PLESETSK MISSILE AND SPACE COMPLEX (PKMTR)
aabbcc
Your satellite tracking list
Your tracking list is empty




NASA's NSSDC Master Catalog

Two Line Element Set (TLE):
1 24761U 97015A   19321.84217743 -.00000105 +00000-0 +00000-0 0  9991
2 24761 067.0009 357.3146 6386025 182.7508 170.4422 02.00297000165635
Source of the keplerian elements: AFSPC